Regional Weather Roundup
Issued by NWS

Home | Current Version | Previous Version | Text Only | Print | Product List | Glossary Off
Versions: 1 2 3 4 5 6 7 8 9 10 11 12 13 14 15 16 17 18 19 20 21 22 23 24 25 26 27 28 29 30 31 32 33 34 35 36 37 38 39 40 41 42 43 44 45 46 47 48 49 50

000
ASUS43 KLMK 040102
RWRKY
KENTUCKY REGIONAL WEATHER ROUNDUP
NATIONAL WEATHER SERVICE LOUISVILLE KY
900 PM EDT FRI JUL 03 2015

NOTE "FAIR" INDICATES FEW OR NO CLOUDS BELOW 12,000 FEET
WITH NO SIGNIFICANT WEATHER AND/OR OBSTRUCTIONS TO VISIBILITY.

KYZ001>023-026-027-061>063-070>075-040200-
WESTERN AND SOUTH CENTRAL KENTUCKY

CITY           SKY/WX    TMP DP  RH WIND       PRES   REMARKS
PADUCAH        CLOUDY    73  69  87 W3        29.88S
HENDERSON      PTCLDY    75  68  78 CALM      29.85S
OWENSBORO      CLOUDY    72  71  96 SE8       29.87R FOG
HOPKINSVILLE   MOCLDY    73  68  83 SW8       29.89R
BOWLING GREEN  CLOUDY    71  69  93 SW3       29.88F
GLASGOW        NOT AVBL
$$

KYZ024-025-028>034-038-045-046-053-040200-
NORTH CENTRAL KENTUCKY

CITY           SKY/WX    TMP DP  RH WIND       PRES   REMARKS
LOUISVILLE/SDF CLOUDY    74  69  85 NE8       29.86R
LOUISVILLE/LOU CLOUDY    73  68  84 NE5       29.87R HAZE
FORT KNOX      CLOUDY    69  67  95 CALM      29.86R
$$

KYZ035>037-039>044-047>052-055>060-089>105-040200-
NORTHEAST KENTUCKY

CITY           SKY/WX    TMP DP  RH WIND       PRES   REMARKS
LEXINGTON      CLOUDY    69  68  96 SW6       29.88R
COVINGTON      CLOUDY    71  63  75 E9        29.88S
FRANKFORT      TSTM      68  66  93 CALM      29.87R FOG
$$

KYZ054-064>069-076>088-106>120-040200-
SOUTHEAST KENTUCKY

CITY           SKY/WX    TMP DP  RH WIND       PRES   REMARKS
JACKSON        LGT RAIN  68  66  93 VRB3      29.90R
LONDON         LGT RAIN  69  64  84 CALM      29.92R
SOMERSET       NOT AVBL
MIDDLESBORO    NOT AVBL
MONTICELLO     CLOUDY    71  71 100 NW7       29.94S
$$




USA.gov is the U.S. government's official web portal to all federal, state and local government web resources and services.